,,PressureMeas_1m,,PRMeasQMR101_1,,RHStat155_1m_1,,SRMeasQMS101R_1m,,TAStat155_1m_1,,GenWind_1,,GenWind_1,
2017-07-04, 07:00:06,VALID,918.801,VALID,0.0,VALID,97.642,VALID,54.908,VALID,20.474,VALID,90.0,VALID,0.0,
2017-07-04, 07:01:06,VALID,918.787,VALID,0.0,VALID,97.667,VALID,58.856,VALID,20.475,VALID,101.0,VALID,0.0,
2017-07-04, 07:02:06,VALID,918.784,VALID,0.0,VALID,97.703,VALID,58.219,VALID,20.488,VALID,106.0,VALID,0.546,
2017-07-04, 07:03:06,VALID,918.78,VALID,0.0,VALID,97.772,VALID,59.959,VALID,20.493,VALID,115.0,VALID,0.997,
2017-07-04, 07:04:06,VALID,918.754,VALID,0.0,VALID,97.781,VALID,57.85,VALID,20.483,VALID,116.0,VALID,1.159,
2017-07-04, 07:05:06,VALID,918.749,VALID,0.0,VALID,97.777,VALID,63.1,VALID,20.452,VALID,120.0,VALID,1.0,
2017-07-04, 07:06:06,VALID,918.732,VALID,0.0,VALID,97.877,VALID,80.279,VALID,20.474,VALID,112.0,VALID,0.643,
2017-07-04, 07:07:06,VALID,918.716,VALID,0.0,VALID,97.948,VALID,91.71,VALID,20.497,VALID,114.0,VALID,0.834,
2017-07-04, 07:08:06,VALID,918.724,VALID,0.0,VALID,97.998,VALID,80.903,VALID,20.515,VALID,122.0,VALID,0.95,
2017-07-04, 07:09:06,VALID,918.73,VALID,0.0,VALID,98.035,VALID,78.127,VALID,20.53,VALID,110.0,VALID,1.184,
2017-07-04, 07:10:06,VALID,918.734,VALID,0.0,VALID,97.927,VALID,87.725,VALID,20.476,VALID,111.0,VALID,1.157,
2017-07-04, 07:11:06,VALID,918.745,VALID,0.0,VALID,97.879,VALID,62.269,VALID,20.452,VALID,129.0,VALID,0.938,
2017-07-04, 07:12:06,VALID,918.747,VALID,0.0,VALID,97.963,VALID,56.475,VALID,20.471,VALID,139.0,VALID,1.251,
2017-07-04, 07:13:06,VALID,918.761,VALID,0.0,VALID,97.887,VALID,43.266,VALID,20.431,VALID,137.0,VALID,1.482,
2017-07-04, 07:14:06,VALID,918.773,VALID,0.0,VALID,97.828,VALID,30.472,VALID,20.406,VALID,144.0,VALID,1.49,
2017-07-04, 07:15:06,VALID,918.774,VALID,0.0,VALID,97.854,VALID,25.234,VALID,20.399,VALID,155.0,VALID,1.712,
2017-07-04, 07:16:06,VALID,918.786,VALID,0.0,VALID,97.87,VALID,24.731,VALID,20.384,VALID,163.0,VALID,1.59,
2017-07-04, 07:17:06,VALID,918.803,VALID,0.0,VALID,97.886,VALID,26.423,VALID,20.366,VALID,152.0,VALID,1.52,
2017-07-04, 07:18:06,VALID,918.806,VALID,0.0,VALID,97.858,VALID,29.271,VALID,20.34,VALID,146.0,VALID,1.152,
2017-07-04, 07:19:06,VALID,918.82,VALID,0.0,VALID,97.913,VALID,28.984,VALID,20.336,VALID,147.0,VALID,1.664,
2017-07-04, 07:20:06,VALID,918.832,VALID,0.0,VALID,97.883,VALID,32.55,VALID,20.303,VALID,145.0,VALID,1.428,
2017-07-04, 07:21:06,VALID,918.847,VALID,0.0,VALID,97.908,VALID,40.008,VALID,20.288,VALID,118.0,VALID,1.564,
2017-07-04, 07:22:06,VALID,918.849,VALID,0.0,VALID,97.881,VALID,54.303,VALID,20.264,VALID,107.0,VALID,1.443,
2017-07-04, 07:23:06,VALID,918.859,VALID,0.0,VALID,97.939,VALID,67.455,VALID,20.279,VALID,108.0,VALID,1.298,
2017-07-04, 07:24:06,VALID,918.861,VALID,0.0,VALID,97.964,VALID,58.146,VALID,20.29,VALID,106.0,VALID,1.257,
2017-07-04, 07:25:06,VALID,918.887,VALID,0.0,VALID,97.97,VALID,59.184,VALID,20.303,VALID,109.0,VALID,0.939,
2017-07-04, 07:26:06,VALID,918.888,VALID,0.0,VALID,97.969,VALID,67.903,VALID,20.322,VALID,111.0,VALID,0.962,
2017-07-04, 07:27:06,VALID,918.893,VALID,0.0,VALID,97.956,VALID,62.96,VALID,20.355,VALID,105.0,VALID,0.853,
2017-07-04, 07:28:06,VALID,918.911,VALID,0.0,VALID,97.908,VALID,77.369,VALID,20.368,VALID,106.0,VALID,0.795,
2017-07-04, 07:29:06,VALID,918.922,VALID,0.0,VALID,97.799,VALID,86.539,VALID,20.397,VALID,111.0,VALID,0.643,
2017-07-04, 07:30:06,VALID,918.941,VALID,0.0,VALID,97.77,VALID,118.688,VALID,20.457,VALID,102.0,VALID,0.776,
2017-07-04, 07:31:06,VALID,918.955,VALID,0.0,VALID,97.511,VALID,188.828,VALID,20.488,VALID,105.0,VALID,0.903,
2017-07-04, 07:32:06,VALID,918.975,VALID,0.0,VALID,97.329,VALID,219.477,VALID,20.576,VALID,110.0,VALID,0.563,
2017-07-04, 07:33:06,VALID,918.973,VALID,0.0,VALID,97.185,VALID,225.368,VALID,20.699,VALID,107.0,VALID,0.602,
2017-07-04, 07:34:06,VALID,918.991,VALID,0.0,VALID,96.966,VALID,235.772,VALID,20.854,VALID,111.0,VALID,0.411,
2017-07-04, 07:35:06,VALID,918.993,VALID,0.0,VALID,96.381,VALID,242.898,VALID,21.01,VALID,139.0,VALID,0.606,
2017-07-04, 07:36:06,VALID,918.983,VALID,0.0,VALID,95.793,VALID,247.819,VALID,21.171,VALID,123.0,VALID,0.639,
2017-07-04, 07:37:06,VALID,918.989,VALID,0.0,VALID,94.281,VALID,252.374,VALID,21.26,VALID,121.0,VALID,0.728,
2017-07-04, 07:38:06,VALID,918.985,VALID,0.0,VALID,93.938,VALID,254.595,VALID,21.34,VALID,128.0,VALID,0.708,
2017-07-04, 07:39:06,VALID,918.971,VALID,0.0,VALID,92.95,VALID,237.788,VALID,21.343,VALID,147.0,VALID,1.14,
2017-07-04, 07:40:06,VALID,918.977,VALID,0.0,VALID,92.858,VALID,249.738,VALID,21.264,VALID,148.0,VALID,1.064,
2017-07-04, 07:41:06,VALID,918.969,VALID,0.0,VALID,93.23,VALID,247.153,VALID,21.246,VALID,144.0,VALID,1.133,
2017-07-04, 07:42:06,VALID,918.959,VALID,0.0,VALID,93.263,VALID,251.148,VALID,21.237,VALID,148.0,VALID,0.94,
2017-07-04, 07:43:06,VALID,918.958,VALID,0.0,VALID,93.672,VALID,258.227,VALID,21.285,VALID,147.0,VALID,1.183,
2017-07-04, 07:44:06,VALID,918.969,VALID,0.0,VALID,93.65,VALID,263.873,VALID,21.279,VALID,145.0,VALID,1.133,
2017-07-04, 07:45:06,VALID,918.967,VALID,0.0,VALID,93.964,VALID,269.726,VALID,21.319,VALID,149.0,VALID,1.066,
2017-07-04, 07:46:06,VALID,918.983,VALID,0.0,VALID,93.6,VALID,255.218,VALID,21.339,VALID,146.0,VALID,1.348,
2017-07-04, 07:47:06,VALID,918.991,VALID,0.0,VALID,93.804,VALID,251.093,VALID,21.342,VALID,140.0,VALID,1.141,
2017-07-04, 07:48:06,VALID,918.992,VALID,0.0,VALID,93.652,VALID,200.723,VALID,21.372,VALID,141.0,VALID,0.927,
2017-07-04, 07:49:06,VALID,919.001,VALID,0.0,VALID,92.77,VALID,242.293,VALID,21.383,VALID,140.0,VALID,1.197,
2017-07-04, 07:50:06,VALID,919.007,VALID,0.0,VALID,91.847,VALID,262.961,VALID,21.401,VALID,143.0,VALID,0.92,
2017-07-04, 07:51:06,VALID,919.006,VALID,0.0,VALID,92.885,VALID,294.477,VALID,21.519,VALID,153.0,VALID,1.136,
2017-07-04, 07:52:06,VALID,919.017,VALID,0.0,VALID,91.557,VALID,298.856,VALID,21.614,VALID,150.0,VALID,1.032,
2017-07-04, 07:53:06,VALID,919.027,VALID,0.0,VALID,90.957,VALID,298.016,VALID,21.717,VALID,153.0,VALID,1.001,
2017-07-04, 07:54:06,VALID,919.042,VALID,0.0,VALID,90.204,VALID,302.437,VALID,21.785,VALID,158.0,VALID,1.302,
2017-07-04, 07:55:06,VALID,919.062,VALID,0.0,VALID,90.488,VALID,267.583,VALID,21.861,VALID,173.0,VALID,0.761,
2017-07-04, 07:56:06,VALID,919.063,VALID,0.0,VALID,90.727,VALID,191.78,VALID,22.022,VALID,171.0,VALID,0.835,
2017-07-04, 07:57:06,VALID,919.084,VALID,0.0,VALID,89.754,VALID,177.533,VALID,22.139,VALID,177.0,VALID,0.839,
2017-07-04, 07:58:06,VALID,919.09,VALID,0.0,VALID,89.344,VALID,222.733,VALID,22.183,VALID,161.0,VALID,0.855,
2017-07-04, 07:59:06,VALID,919.109,VALID,0.0,VALID,89.092,VALID,267.308,VALID,22.069,VALID,154.0,VALID,1.345,
2017-07-04, 08:00:06,VALID,919.119,VALID,0.0,VALID,89.475,VALID,387.458,VALID,21.908,VALID,157.0,VALID,1.005,
2017-07-04, 08:01:06,VALID,919.127,VALID,0.0,VALID,90.399,VALID,370.843,VALID,21.946,VALID,166.0,VALID,0.848,
2017-07-04, 08:02:06,VALID,919.134,VALID,0.0,VALID,89.431,VALID,338.054,VALID,22.031,VALID,159.0,VALID,0.965,
2017-07-04, 08:03:06,VALID,919.143,VALID,0.0,VALID,89.696,VALID,305.96,VALID,22.062,VALID,170.0,VALID,0.543,
2017-07-04, 08:04:06,VALID,919.147,VALID,0.0,VALID,89.392,VALID,394.544,VALID,22.156,VALID,146.0,VALID,1.103,
2017-07-04, 08:05:06,VALID,919.151,VALID,0.0,VALID,89.527,VALID,460.433,VALID,22.187,VALID,154.0,VALID,1.028,
2017-07-04, 08:06:06,VALID,919.154,VALID,0.0,VALID,89.46,VALID,469.913,VALID,22.279,VALID,135.0,VALID,0.732,
2017-07-04, 08:07:06,VALID,919.165,VALID,0.0,VALID,88.961,VALID,467.726,VALID,22.443,VALID,156.0,VALID,0.989,
2017-07-04, 08:08:06,VALID,919.161,VALID,0.0,VALID,88.176,VALID,395.16,VALID,22.477,VALID,137.0,VALID,0.725,
2017-07-04, 08:09:06,VALID,919.154,VALID,0.0,VALID,88.719,VALID,309.582,VALID,22.569,VALID,97.0,VALID,0.783,
2017-07-04, 08:10:06,VALID,919.168,VALID,0.0,VALID,88.902,VALID,425.458,VALID,22.719,VALID,120.0,VALID,1.036,
2017-07-04, 08:11:06,VALID,919.178,VALID,0.0,VALID,86.123,VALID,445.444,VALID,22.752,VALID,157.0,VALID,0.876,
2017-07-04, 08:12:06,VALID,919.198,VALID,0.0,VALID,85.788,VALID,458.154,VALID,22.766,VALID,149.0,VALID,1.143,
2017-07-04, 08:13:06,VALID,919.205,VALID,0.0,VALID,86.737,VALID,409.236,VALID,22.693,VALID,163.0,VALID,1.109,
2017-07-04, 08:14:06,VALID,919.218,VALID,0.0,VALID,87.507,VALID,265.424,VALID,22.701,VALID,155.0,VALID,0.544,
2017-07-04, 08:15:06,VALID,919.236,VALID,0.0,VALID,87.632,VALID,465.115,VALID,22.793,VALID,153.0,VALID,0.763,
2017-07-04, 08:16:06,VALID,919.239,VALID,0.0,VALID,85.962,VALID,524.842,VALID,22.86,VALID,151.0,VALID,0.607,
2017-07-04, 08:17:06,VALID,919.24,VALID,0.0,VALID,86.153,VALID,532.123,VALID,23.024,VALID,165.0,VALID,0.416,
2017-07-04, 08:18:06,VALID,919.241,VALID,0.0,VALID,85.048,VALID,529.651,VALID,23.318,VALID,180.0,VALID,0.583,
2017-07-04, 08:19:06,VALID,919.239,VALID,0.0,VALID,83.557,VALID,525.063,VALID,23.577,VALID,146.0,VALID,0.866,
2017-07-04, 08:20:06,VALID,919.247,VALID,0.0,VALID,84.0,VALID,526.514,VALID,23.557,VALID,77.0,VALID,1.096,
2017-07-04, 08:21:06,VALID,919.256,VALID,0.0,VALID,84.204,VALID,525.057,VALID,23.399,VALID,52.0,VALID,1.195,
2017-07-04, 08:22:06,VALID,919.246,VALID,0.0,VALID,84.506,VALID,457.116,VALID,23.423,VALID,55.0,VALID,1.014,
2017-07-04, 08:23:06,VALID,919.248,VALID,0.0,VALID,83.809,VALID,486.907,VALID,23.571,VALID,110.0,VALID,0.805,
2017-07-04, 08:24:06,VALID,919.251,VALID,0.0,VALID,84.76,VALID,485.704,VALID,23.635,VALID,95.0,VALID,1.255,
2017-07-04, 08:25:06,VALID,919.257,VALID,0.0,VALID,82.537,VALID,488.058,VALID,23.424,VALID,87.0,VALID,0.641,
2017-07-04, 08:26:06,VALID,919.267,VALID,0.0,VALID,83.305,VALID,488.433,VALID,23.32,VALID,120.0,VALID,0.751,
2017-07-04, 08:27:06,VALID,919.272,VALID,0.0,VALID,84.895,VALID,494.08,VALID,23.376,VALID,69.0,VALID,0.489,
2017-07-04, 08:28:06,VALID,919.285,VALID,0.0,VALID,84.584,VALID,504.135,VALID,23.667,VALID,46.0,VALID,0.548,
2017-07-04, 08:29:06,VALID,919.281,VALID,0.0,VALID,81.067,VALID,509.304,VALID,23.83,VALID,38.0,VALID,1.404,
2017-07-04, 08:30:06,VALID,919.293,VALID,0.0,VALID,80.528,VALID,299.882,VALID,23.68,VALID,18.0,VALID,1.114,
2017-07-04, 08:31:06,VALID,919.301,VALID,0.0,VALID,80.818,VALID,203.277,VALID,23.629,VALID,348.0,VALID,0.685,
2017-07-04, 08:32:06,VALID,919.295,VALID,0.0,VALID,80.901,VALID,299.714,VALID,23.594,VALID,348.0,VALID,0.264,
2017-07-04, 08:33:06,VALID,919.294,VALID,0.0,VALID,81.522,VALID,274.043,VALID,23.559,VALID,74.0,VALID,0.738,
2017-07-04, 08:34:06,VALID,919.284,VALID,0.0,VALID,80.899,VALID,196.158,VALID,23.285,VALID,80.0,VALID,1.032,
2017-07-04, 08:35:06,VALID,919.271,VALID,0.0,VALID,82.379,VALID,188.312,VALID,22.979,VALID,67.0,VALID,0.873,
2017-07-04, 08:36:06,VALID,919.269,VALID,0.0,VALID,83.551,VALID,190.488,VALID,22.799,VALID,60.0,VALID,0.87,
2017-07-04, 08:37:06,VALID,919.283,VALID,0.0,VALID,83.974,VALID,201.056,VALID,22.693,VALID,40.0,VALID,0.733,
2017-07-04, 08:38:06,VALID,919.289,VALID,0.0,VALID,84.051,VALID,242.006,VALID,22.664,VALID,47.0,VALID,0.588,
2017-07-04, 08:39:06,VALID,919.297,VALID,0.0,VALID,84.636,VALID,274.683,VALID,22.688,VALID,50.0,VALID,0.309,
2017-07-04, 08:40:06,VALID,919.305,VALID,0.0,VALID,84.617,VALID,244.899,VALID,22.808,VALID,4.0,VALID,0.337,
2017-07-04, 08:41:06,VALID,919.327,VALID,0.0,VALID,84.16,VALID,215.127,VALID,22.979,VALID,344.0,VALID,0.096,
2017-07-04, 08:42:06,VALID,919.314,VALID,0.0,VALID,83.366,VALID,219.79,VALID,23.217,VALID,342.0,VALID,0.002,
2017-07-04, 08:43:06,VALID,919.302,VALID,0.0,VALID,82.231,VALID,300.679,VALID,23.393,VALID,104.0,VALID,0.138,
2017-07-04, 08:44:06,VALID,919.293,VALID,0.0,VALID,81.68,VALID,220.516,VALID,23.511,VALID,129.0,VALID,0.462,
2017-07-04, 08:45:06,VALID,919.273,VALID,0.0,VALID,80.977,VALID,144.224,VALID,23.464,VALID,145.0,VALID,0.173,
2017-07-04, 08:46:06,VALID,919.258,VALID,0.0,VALID,81.825,VALID,143.683,VALID,23.396,VALID,98.0,VALID,0.514,
2017-07-04, 08:47:06,VALID,919.256,VALID,0.0,VALID,82.171,VALID,129.626,VALID,23.337,VALID,127.0,VALID,0.523,
2017-07-04, 08:48:06,VALID,919.252,VALID,0.0,VALID,81.977,VALID,130.312,VALID,23.263,VALID,120.0,VALID,0.386,
2017-07-04, 08:49:06,VALID,919.253,VALID,0.0,VALID,82.262,VALID,121.256,VALID,23.122,VALID,106.0,VALID,0.499,
2017-07-04, 08:50:06,VALID,919.247,VALID,0.0,VALID,82.675,VALID,119.079,VALID,22.972,VALID,119.0,VALID,0.24,
2017-07-04, 08:51:06,VALID,919.246,VALID,0.0,VALID,83.226,VALID,125.06,VALID,22.92,VALID,139.0,VALID,0.099,
2017-07-04, 08:52:06,VALID,919.241,VALID,0.0,VALID,83.099,VALID,139.997,VALID,22.979,VALID,140.0,VALID,0.095,
2017-07-04, 08:53:06,VALID,919.237,VALID,0.0,VALID,82.463,VALID,208.61,VALID,23.027,VALID,141.0,VALID,0.013,
2017-07-04, 08:54:06,VALID,919.24,VALID,0.0,VALID,82.519,VALID,210.46,VALID,23.066,VALID,141.0,VALID,0.07,
2017-07-04, 08:55:06,VALID,919.239,VALID,0.0,VALID,82.484,VALID,192.962,VALID,23.138,VALID,141.0,VALID,0.03,
2017-07-04, 08:56:06,VALID,919.245,VALID,0.0,VALID,82.579,VALID,171.408,VALID,23.223,VALID,142.0,VALID,0.228,
2017-07-04, 08:57:06,VALID,919.232,VALID,0.0,VALID,81.875,VALID,224.697,VALID,23.236,VALID,137.0,VALID,0.138,
2017-07-04, 08:58:06,VALID,919.224,VALID,0.0,VALID,81.204,VALID,528.794,VALID,23.303,VALID,135.0,VALID,0.184,
2017-07-04, 08:59:06,VALID,919.218,VALID,0.0,VALID,80.292,VALID,405.271,VALID,23.375,VALID,131.0,VALID,0.034,
